Vorticity
11 17 22 22 28 29 21 10 4 6 7 7 8 9 10 8 5 2 -5 -7 -2 4 8 8 7 8 8 9 9 9 9 10 10 10 10 9 8 7 7 7 7 6
4 6 8 10 17 18 12 6 6 9 8 9 10 10 10 9 5 2 -1 3 8 11 10 7 5 6 7 8 9 9 10 10 10 10 11 11 11 11 10 9 9 9
3 2 4 9 15 15 12 10 10 10 10 12 14 13 12 9 7 6 7 9 11 12 9 6 7 8 9 10 10 11 11 10 10 11 10 10 10 11 10 10 10 10
6 6 5 5 9 13 13 11 10 10 11 13 14 12 10 7 8 9 9 11 13 12 8 7 9 10 9 9 10 11 11 10 9 9 8 8 8 8 8 7 7 7
8 9 8 4 5 8 9 9 9 9 10 12 10 7 6 7 9 9 11 14 13 8 6 7 8 9 9 9 9 9 10 10 10 9 8 6 5 6 6 6 6 5
10 11 11 8 4 4 7 9 10 10 9 10 9 7 8 10 10 10 11 13 8 5 4 1 1 6 8 9 9 9 8 8 9 9 9 6 5 4 4 4 5 4
11 11 10 9 7 4 5 7 9 11 11 10 10 9 10 11 11 10 10 9 6 4 -0 -5 -1 7 8 6 7 8 8 7 8 8 9 9 7 6 5 4 5 5
3 6 9 14 13 8 6 6 8 9 10 11 10 10 11 11 11 10 9 8 6 4 1 0 7 12 10 7 7 8 8 7 6 7 7 8 9 8 8 7 6 6
4 6 9 11 7 6 8 8 7 6 7 9 9 9 8 8 11 13 13 12 11 9 9 11 14 14 13 12 10 10 10 10 8 7 6 7 8 8 8 8 8 7
11 10 8 5 2 7 10 8 7 6 5 6 8 8 8 9 12 13 12 11 9 9 9 9 10 11 11 11 10 8 8 10 11 9 7 6 7 7 7 7 7 7
12 14 12 8 8 11 7 3 7 9 6 7 10 11 10 9 8 5 4 6 6 6 7 8 9 10 9 11 12 9 5 7 11 11 9 6 6 7 6 6 6 7
12 15 14 10 12 15 7 2 7 10 8 7 8 10 9 5 3 4 7 7 6 6 7 8 10 11 12 14 15 11 8 9 10 9 9 8 6 6 6 6 6 7
17 16 16 14 14 17 14 9 6 7 9 8 5 6 7 3 3 8 8 5 3 5 8 9 10 11 13 15 14 9 8 12 13 10 10 11 9 6 6 6 7 8
14 13 16 17 11 9 14 15 10 6 8 9 7 6 6 4 6 8 6 3 5 9 10 8 8 9 11 13 13 10 8 11 15 13 10 12 13 10 7 7 7 8
11 11 14 16 10 6 9 11 9 8 7 6 8 10 9 9 10 9 5 5 8 8 6 6 7 10 14 16 16 12 9 11 14 14 11 9 10 10 8 8 9 10
8 6 7 9 10 13 15 11 7 7 6 5 9 12 12 11 11 8 5 5 8 9 9 10 10 10 15 19 17 11 8 10 13 15 13 10 9 10 9 9 9 10
9 8 6 7 9 14 16 14 12 9 4 6 13 11 7 8 9 7 6 8 11 12 13 14 14 15 17 18 16 13 13 16 19 19 18 16 16 15 14 12 10 11
12 17 16 12 10 13 15 13 12 10 6 8 12 8 6 10 10 6 8 9 9 8 9 10 12 14 15 16 18 20 19 18 18 18 18 17 15 14 14 14 12 12
5 9 11 10 9 14 24 23 15 16 19 12 4 4 11 13 7 4 7 7 4 3 4 3 2 4 6 8 10 10 8 8 10 9 8 7 6 8 10 11 12 12
5 3 6 11 11 11 21 24 14 15 21 12 0 5 12 8 4 4 5 4 4 4 2 -0 1 5 6 5 4 3 5 8 9 6 4 3 4 5 7 7 8 10
12 11 10 13 14 9 9 11 9 11 14 10 7 12 10 4 3 4 1 1 4 4 2 1 3 7 8 8 7 6 7 9 7 4 3 2 1 2 4 6 5 5
13 13 11 9 10 8 5 4 6 8 10 11 13 13 7 2 4 4 0 -0 1 2 3 4 4 5 7 10 10 7 5 5 4 4 4 2 0 -0 1 2 3 4
10 9 8 7 8 8 7 5 5 6 8 10 12 10 3 -1 2 4 2 -0 -1 1 2 3 4 4 3 4 8 10 9 5 4 5 4 2 2 2 1 2 3 4
8 6 6 7 7 7 6 6 6 6 6 8 8 7 4 3 5 6 4 1 0 2 3 4 6 6 4 2 4 9 13 10 6 4 2 2 3 4 7 9 8 7
6 5 6 6 6 6 5 4 4 4 5 6 5 5 5 5 6 5 1 -1 -2 -1 -0 1 3 4 5 5 4 5 9 7 2 0 1 2 4 6 7 10 11 10
5 4 4 4 3 3 2 3 3 3 3 4 4 5 4 4 3 2 -1 -2 -2 -0 3 6 6 5 4 4 5 6 6 2 0 2 3 2 2 3 3 4 6 5
Height
5765 5766 5767 5768 5770 5772 5773 5774 5776 5777 5779 5780 5781 5783 5784 5785 5786 5786 5787 5788 5789 5789 5789 5790 5790 5790 5790 5791 5791 5791 5792 5792 5793 5794 5794 5794 5795 5795 5795 5795 5796 5796
5765 5766 5767 5768 5770 5771 5772 5774 5775 5776 5778 5779 5780 5782 5783 5784 5785 5786 5786 5787 5787 5787 5787 5788 5788 5788 5788 5789 5789 5789 5790 5790 5791 5791 5792 5792 5793 5793 5793 5794 5794 5794
5764 5765 5766 5768 5769 5770 5772 5773 5774 5775 5776 5778 5779 5781 5782 5783 5784 5784 5785 5785 5785 5785 5785 5786 5786 5786 5786 5787 5787 5788 5788 5788 5789 5789 5790 5791 5791 5791 5792 5792 5792 5793
5763 5764 5766 5767 5768 5769 5770 5771 5772 5774 5775 5777 5778 5779 5781 5781 5782 5782 5782 5782 5782 5783 5783 5784 5784 5784 5784 5784 5785 5786 5786 5786 5787 5788 5788 5789 5789 5790 5790 5791 5791 5791
5761 5763 5764 5765 5766 5768 5769 5770 5771 5773 5774 5776 5777 5778 5779 5780 5780 5780 5780 5780 5780 5781 5781 5781 5782 5782 5782 5782 5783 5784 5784 5785 5785 5785 5786 5787 5787 5788 5789 5789 5789 5789
5758 5760 5762 5763 5764 5766 5768 5769 5770 5771 5772 5774 5775 5776 5777 5777 5778 5778 5778 5778 5779 5779 5779 5780 5780 5780 5780 5781 5781 5781 5782 5782 5782 5783 5784 5784 5785 5786 5787 5787 5787 5788
5756 5757 5759 5761 5762 5764 5766 5767 5768 5769 5770 5771 5772 5773 5774 5775 5775 5776 5776 5776 5777 5777 5778 5778 5778 5778 5779 5779 5779 5779 5779 5779 5779 5780 5781 5782 5783 5783 5784 5785 5785 5785
5754 5756 5757 5758 5760 5762 5763 5765 5766 5767 5768 5768 5769 5771 5772 5772 5773 5773 5773 5774 5774 5775 5775 5776 5776 5776 5777 5777 5777 5777 5776 5776 5777 5777 5778 5779 5780 5781 5781 5782 5782 5782
5753 5754 5755 5756 5758 5759 5761 5762 5764 5764 5765 5766 5767 5768 5769 5770 5770 5771 5771 5772 5772 5772 5773 5773 5774 5774 5775 5775 5775 5775 5775 5774 5774 5775 5776 5777 5777 5778 5779 5779 5779 5779
5752 5752 5753 5754 5755 5757 5758 5760 5761 5762 5763 5764 5765 5767 5767 5768 5769 5769 5769 5769 5770 5770 5771 5771 5772 5772 5773 5773 5773 5773 5773 5773 5773 5773 5773 5774 5774 5775 5776 5776 5777 5777
5750 5750 5751 5751 5752 5754 5756 5757 5758 5760 5761 5762 5763 5764 5765 5766 5766 5767 5767 5767 5767 5768 5768 5769 5769 5769 5770 5770 5770 5771 5771 5771 5771 5770 5770 5771 5771 5772 5773 5773 5774 5774
5747 5747 5748 5749 5750 5751 5753 5754 5756 5757 5758 5759 5761 5762 5763 5763 5764 5764 5764 5764 5765 5765 5765 5766 5766 5766 5766 5767 5767 5768 5768 5768 5768 5768 5768 5768 5769 5769 5770 5770 5770 5771
5743 5744 5745 5746 5747 5749 5750 5752 5753 5754 5756 5757 5758 5759 5760 5760 5761 5761 5761 5762 5762 5762 5763 5763 5763 5763 5763 5763 5764 5764 5765 5765 5766 5766 5766 5766 5766 5767 5767 5768 5768 5768
5741 5742 5742 5742 5744 5746 5747 5749 5750 5751 5752 5754 5754 5755 5756 5757 5758 5758 5759 5759 5760 5760 5760 5760 5759 5759 5759 5760 5760 5760 5761 5761 5762 5763 5763 5763 5763 5764 5765 5765 5766 5766
5740 5740 5740 5740 5741 5743 5745 5746 5747 5748 5749 5750 5751 5752 5753 5754 5755 5756 5757 5757 5757 5757 5757 5757 5756 5756 5756 5756 5756 5757 5757 5758 5759 5759 5759 5760 5760 5761 5762 5762 5763 5764
5737 5738 5738 5739 5740 5740 5741 5743 5744 5745 5746 5747 5748 5749 5750 5751 5753 5754 5754 5754 5755 5755 5754 5754 5753 5753 5753 5753 5753 5754 5754 5755 5756 5756 5756 5757 5757 5757 5758 5759 5760 5761
5735 5735 5736 5738 5738 5738 5738 5739 5740 5741 5743 5744 5745 5746 5747 5749 5750 5751 5752 5752 5752 5752 5752 5751 5751 5751 5751 5751 5751 5751 5752 5752 5753 5753 5753 5754 5754 5754 5755 5756 5757 5759
5733 5733 5734 5735 5736 5736 5736 5735 5736 5738 5740 5741 5743 5744 5744 5745 5747 5748 5749 5749 5750 5750 5749 5749 5749 5749 5749 5749 5749 5750 5750 5750 5750 5750 5751 5751 5751 5752 5752 5753 5754 5755
5730 5731 5732 5733 5734 5734 5734 5733 5733 5736 5737 5738 5740 5741 5742 5743 5744 5745 5746 5746 5746 5746 5747 5746 5746 5746 5747 5747 5747 5748 5748 5748 5748 5748 5749 5749 5749 5749 5750 5750 5751 5752
5728 5729 5730 5731 5731 5732 5732 5732 5732 5733 5735 5736 5737 5738 5739 5740 5741 5741 5742 5743 5743 5744 5744 5744 5744 5744 5745 5745 5745 5745 5745 5746 5746 5746 5746 5747 5748 5748 5747 5747 5748 5748
5725 5726 5727 5728 5728 5729 5730 5730 5731 5731 5733 5734 5735 5736 5737 5737 5738 5739 5739 5740 5741 5741 5741 5741 5742 5742 5742 5742 5742 5742 5743 5743 5743 5743 5744 5744 5745 5745 5745 5745 5745 5745
5722 5723 5724 5725 5725 5726 5727 5728 5728 5729 5731 5732 5733 5733 5734 5735 5735 5736 5737 5737 5738 5738 5738 5738 5738 5739 5739 5739 5739 5739 5740 5740 5740 5740 5741 5741 5741 5741 5742 5742 5742 5742
5719 5720 5721 5722 5723 5724 5724 5725 5726 5727 5728 5729 5730 5731 5732 5732 5733 5733 5734 5735 5735 5735 5735 5735 5735 5735 5735 5736 5736 5736 5736 5737 5737 5737 5737 5737 5737 5738 5738 5738 5738 5738
5715 5716 5717 5719 5720 5721 5722 5723 5723 5724 5725 5726 5727 5728 5728 5729 5730 5730 5731 5731 5731 5731 5731 5731 5731 5731 5731 5731 5731 5731 5732 5732 5732 5732 5733 5733 5733 5734 5734 5734 5734 5733
5713 5713 5714 5715 5717 5718 5719 5720 5720 5721 5722 5723 5724 5724 5725 5726 5726 5727 5727 5727 5727 5728 5728 5728 5728 5727 5727 5727 5727 5727 5727 5727 5727 5727 5727 5728 5728 5728 5728 5728 5728 5729
5710 5711 5712 5713 5714 5715 5716 5716 5717 5718 5719 5719 5720 5720 5721 5721 5722 5723 5723 5723 5724 5724 5724 5724 5723 5723 5723 5722 5722 5722 5722 5722 5722 5722 5722 5722 5722 5722 5722 5722 5723 5723